Location: ?????? ??????
(44.3742°N, 135.2221°E)
Time: 02:57:28
(UTC+00:00)

Aureole 3 Rocket - Pass Details

Date: 19 May 2025
Orbit: 397 x 1697 km, 82.5° (Epoch: 14 June)

Event Time Altitude Azimuth Distance (km) Brightness Sun altitude
Rises 17:37:17 0° 347° (NNW) 3,177 7.3 -15.9°
Reaches altitude 10° 17:39:59 10° 341° (NNW) 2,052 6.1 -15.5°
Maximum altitude 17:44:10 46° 269° (W) 716 3.1 -15.1°
Enters shadow 17:45:35 29° 214° (SW) 928 3.4 -14.9°
